FW4636 Weather Reports


Display with metric or nautical units.
time (UTC)temp
F
wind
direction
speed
MPH
gust
MPH
rain 1hr
in
rain 24hr
in
rain mn
in
humidity
%
barometer
mb
20260506073505 70 336 0.0 2.0 0.00 0.00 0.00 85 1006.5
20260506073004 70 336 0.0 4.0 0.00 0.00 0.00 84 1006.6
20260506072503 70 336 0.0 4.0 0.00 0.00 0.00 84 1006.6
20260506072006 70 337 1.0 7.0 0.00 0.00 0.00 84 1006.6
20260506071502 70 337 1.0 7.0 0.00 0.00 0.00 84 1006.6
20260506071001 71 355 0.0 6.0 0.00 0.00 0.00 83 1006.5
20260506070602 71 355 3.0 8.0 0.00 0.00 0.00 83 1006.5
20260506062050 75 218 0.0 2.0 0.00 0.00 0.00 89 1006.3
20260506061550 75 218 0.0 1.0 0.00 0.00 0.00 89 1006.3
20260506061051 75 218 0.0 2.0 0.00 0.00 0.00 89 1006.4
20260506060548 75 218 0.0 2.0 0.00 0.00 0.00 88 1006.4
20260506051040 76 218 0.0 0.0 0.00 0.00 0.00 86 1005.9
20260506050543 76 218 0.0 0.0 0.00 0.00 0.00 86 1005.8
20260506045038 77 218 1.0 4.0 0.00 0.00 0.00 86 1005.7
20260506044544 77 218 1.0 5.0 0.00 0.00 0.00 86 1005.7
20260506044038 77 218 1.0 5.0 0.00 0.00 0.00 86 1005.7
20260506043538 77 218 1.0 10.0 0.00 0.00 0.00 85 1005.7
20260506043037 77 218 3.0 10.0 0.00 0.00 0.00 85 1005.7
20260506042538 77 217 2.0 8.0 0.00 0.00 0.00 85 1005.5
20260506042038 77 209 3.0 8.0 0.00 0.00 0.00 85 1005.6
20260506041538 77 209 1.0 9.0 0.00 0.00 0.00 85 1005.5
20260506041037 77 209 3.0 9.0 0.00 0.00 0.00 85 1005.3
20260506040538 77 216 2.0 11.0 0.00 0.00 0.00 84 1005.2
20260506040037 77 216 2.0 12.0 0.00 0.00 0.00 84 1005.1
20260506035537 77 217 5.0 12.0 0.00 0.00 0.00 84 1005.1
20260506035037 77 229 4.0 11.0 0.00 0.00 0.00 84 1005.1
20260506034539 77 211 4.0 11.0 0.00 0.00 0.00 84 1005.1
20260506034036 77 215 5.0 10.0 0.00 0.00 0.00 84 1005.1
20260506033536 77 184 4.0 8.0 0.00 0.00 0.00 83 1004.8
20260506033038 77 184 3.0 7.0 0.00 0.00 0.00 83 1004.8
20260506032537 77 184 3.0 8.0 0.00 0.00 0.00 83 1004.7
20260506032038 77 184 4.0 8.0 0.00 0.00 0.00 83 1004.5
20260506031537 78 184 4.0 9.0 0.00 0.00 0.00 82 1004.3
20260506031036 78 184 3.0 9.0 0.00 0.00 0.00 82 1004.2
20260506030535 78 184 2.0 7.0 0.00 0.00 0.00 82 1004.3
20260506030055 78 183 3.0 7.0 0.00 0.00 0.00 82 1004.1
20260506025535 78 184 1.0 8.0 0.00 0.00 0.00 82 1004.1
20260506025036 78 183 3.0 8.0 0.00 0.00 0.00 82 1003.8
20260506024547 78 183 3.0 10.0 0.00 0.00 0.00 82 1003.7
20260506024035 78 182 4.0 10.0 0.00 0.00 0.00 81 1003.7
20260506023535 78 182 3.0 9.0 0.00 0.00 0.00 81 1003.6
20260506023035 78 180 4.0 9.0 0.00 0.00 0.00 81 1003.4
20260506022534 78 180 3.0 10.0 0.00 0.00 0.00 81 1003.4
20260506022034 78 180 3.0 10.0 0.00 0.00 0.00 80 1003.4
20260506021534 78 173 4.0 9.0 0.00 0.00 0.00 80 1003.4
20260506021034 79 172 3.0 9.0 0.00 0.00 0.00 80 1003.5
20260506020535 79 172 3.0 10.0 0.00 0.00 0.00 80 1003.4
20260506020034 79 172 4.0 10.0 0.00 0.00 0.00 80 1003.4
20260506015536 79 169 4.0 10.0 0.00 0.00 0.00 79 1003.1
20260506015034 79 184 4.0 8.0 0.00 0.00 0.00 79 1003.1
20260506014543 79 182 4.0 8.0 0.00 0.00 0.00 78 1003.2
20260506014035 80 186 3.0 6.0 0.00 0.00 0.00 78 1003.2
20260506013535 80 186 3.0 6.0 0.00 0.00 0.00 77 1003.2
20260506013032 80 189 2.0 9.0 0.00 0.00 0.00 77 1003.1
20260506012532 80 189 4.0 9.0 0.00 0.00 0.00 76 1003.2
20260506012033 80 208 3.0 8.0 0.00 0.00 0.00 76 1003.1
20260506011537 80 211 4.0 9.0 0.00 0.00 0.00 75 1003.2
20260506011035 81 213 5.0 9.0 0.00 0.00 0.00 75 1003.2
20260506010534 81 215 4.0 11.0 0.00 0.00 0.00 75 1003.2
20260506010032 81 217 4.0 12.0 0.00 0.00 0.00 74 1003.1
20260506005532 81 198 6.0 12.0 0.00 0.00 0.00 74 1003.1
20260506005031 81 207 4.0 12.0 0.00 0.00 0.00 74 1003.0
20260506004544 81 213 5.0 12.0 0.00 0.00 0.00 74 1002.9
20260506004031 81 207 6.0 12.0 0.00 0.00 0.00 74 1002.9
20260506003532 81 215 2.0 14.0 0.00 0.00 0.00 74 1002.8
20260506003038 81 216 8.0 14.0 0.00 0.00 0.00 73 1002.8
20260506002530 81 194 4.0 13.0 0.00 0.00 0.00 73 1002.7
20260506002031 82 230 7.0 14.0 0.00 0.00 0.00 73 1002.7
20260506001534 82 187 6.0 14.0 0.00 0.00 0.00 73 1002.6
20260506001031 82 178 8.0 18.0 0.00 0.00 0.00 73 1002.7
20260506000531 82 231 8.0 18.0 0.00 0.00 0.00 72 1002.7
20260506000030 82 204 7.0 14.0 0.00 0.00 0.00 72 1002.8
20260505235530 82 192 6.0 14.0 0.00 0.00 0.00 72 1002.8
20260505235030 82 215 6.0 13.0 0.00 0.00 0.00 72 1002.8
20260505234531 83 177 6.0 14.0 0.00 0.00 0.00 72 1002.7
20260505234029 82 205 6.0 16.0 0.00 0.00 0.00 72 1002.9
20260505233530 83 192 7.0 16.0 0.00 0.00 0.00 71 1002.8
20260505233029 83 207 8.0 20.0 0.00 0.00 0.00 71 1002.8
20260505232528 83 231 8.0 20.0 0.00 0.00 0.00 72 1002.6
20260505232028 83 215 7.0 14.0 0.00 0.00 0.00 72 1002.5
20260505231529 82 208 6.0 15.0 0.00 0.00 0.00 72 1002.4
20260505231027 82 174 8.0 19.0 0.00 0.00 0.00 72 1002.4
20260505230526 82 191 7.0 19.0 0.00 0.00 0.00 72 1002.5
20260505230039 82 218 8.0 16.0 0.00 0.00 0.00 72 1002.5
20260505225526 82 207 8.0 19.0 0.00 0.00 0.00 71 1002.4
20260505225028 82 165 9.0 23.0 0.00 0.00 0.00 71 1002.4
20260505224532 82 165 7.0 23.0 0.00 0.00 0.00 72 1002.5
20260505224026 82 218 9.0 23.0 0.00 0.00 0.00 72 1002.5
20260505223525 82 242 9.0 21.0 0.00 0.00 0.00 71 1002.6
20260505223024 82 236 9.0 21.0 0.00 0.00 0.00 71 1002.5
20260505222524 83 194 8.0 20.0 0.00 0.00 0.00 71 1002.5
20260505222024 83 206 9.0 24.0 0.00 0.00 0.00 71 1002.4
20260505221524 82 207 10.0 24.0 0.00 0.00 0.00 71 1002.2
20260505221023 82 173 5.0 23.0 0.00 0.00 0.00 72 1002.2
20260505220523 82 198 11.0 23.0 0.00 0.00 0.00 71 1002.2
20260505220024 83 187 7.0 20.0 0.00 0.00 0.00 71 1002.4
20260505215524 83 213 7.0 21.0 0.00 0.00 0.00 71 1002.3
20260505215025 83 219 9.0 21.0 0.00 0.00 0.00 71 1002.4
20260505214522 83 191 9.0 21.0 0.00 0.00 0.00 71 1002.5
20260505214022 83 211 11.0 21.0 0.00 0.00 0.00 70 1002.5
20260505213524 83 213 8.0 20.0 0.00 0.00 0.00 70 1002.6
20260505213019 83 198 7.0 19.0 0.00 0.00 0.00 70 1002.5
20260505212519 83 209 9.0 20.0 0.00 0.00 0.00 69 1002.8
20260505212020 84 175 10.0 20.0 0.00 0.00 0.00 69 1002.8
20260505211521 83 233 6.0 18.0 0.00 0.00 0.00 70 1002.8
20260505211017 83 174 7.0 19.0 0.00 0.00 0.00 70 1003.0
20260505210518 83 205 8.0 21.0 0.00 0.00 0.00 70 1003.0
20260505210016 83 194 13.0 21.0 0.00 0.00 0.00 69 1003.1
20260505205515 83 223 5.0 18.0 0.00 0.00 0.00 71 1003.2
20260505205015 82 180 7.0 19.0 0.00 0.00 0.00 71 1003.4
20260505204515 82 211 8.0 19.0 0.00 0.00 0.00 71 1003.4
20260505204013 82 175 5.0 14.0 0.00 0.00 0.00 72 1003.5
20260505203513 82 205 7.0 16.0 0.00 0.00 0.00 71 1003.5
20260505203023 82 220 9.0 19.0 0.00 0.00 0.00 71 1003.6
20260505202512 83 221 10.0 19.0 0.00 0.00 0.00 71 1003.6
20260505202012 82 225 8.0 16.0 0.00 0.00 0.00 71 1003.5
20260505201511 83 240 10.0 18.0 0.00 0.00 0.00 71 1003.5
20260505201010 82 205 5.0 24.0 0.00 0.00 0.00 73 1003.4
20260505200510 82 185 8.0 24.0 0.00 0.00 0.00 72 1003.4
20260505200008 82 176 11.0 20.0 0.00 0.00 0.00 71 1003.3
20260505195511 82 177 9.0 24.0 0.00 0.00 0.00 72 1003.4
20260505195007 82 218 8.0 24.0 0.00 0.00 0.00 72 1003.3
20260505194506 82 184 12.0 22.0 0.00 0.00 0.00 72 1003.5
20260505194006 81 217 7.0 20.0 0.00 0.00 0.00 73 1003.6
20260505193504 81 196 10.0 24.0 0.00 0.00 0.00 73 1003.7
20260505193002 81 208 12.0 24.0 0.00 0.00 0.00 72 1003.9
20260505192501 81 234 10.0 24.0 0.00 0.00 0.00 74 1003.9
20260505192000 81 217 10.0 22.0 0.00 0.00 0.00 73 1004.0
20260505191606 81 205 9.0 21.0 0.00 0.00 0.00 73 1004.0
20260505191100 81 196 10.0 21.0 0.00 0.00 0.00 73 1004.0
20260505190558 81 220 6.0 20.0 0.00 0.00 0.00 74 1003.9
20260505190057 81 184 9.0 21.0 0.00 0.00 0.00 74 1004.0
20260505185557 80 227 6.0 21.0 0.00 0.00 0.00 75 1003.9
20260505185055 80 231 8.0 22.0 0.00 0.00 0.00 75 1004.0
20260505184556 80 202 9.0 26.0 0.00 0.00 0.00 75 1004.1
20260505184052 79 227 10.0 26.0 0.00 0.00 0.00 75 1004.1
20260505183552 79 243 10.0 22.0 0.00 0.00 0.00 75 1004.2
20260505183052 79 214 9.0 23.0 0.00 0.00 0.00 75 1004.2
20260505182550 79 214 9.0 23.0 0.00 0.00 0.00 75 1004.3
20260505182050 79 248 11.0 22.0 0.00 0.00 0.00 75 1004.3
20260505181549 79 228 11.0 22.0 0.00 0.00 0.00 76 1004.3
20260505181049 79 248 10.0 22.0 0.00 0.00 0.00 76 1004.3
20260505180546 79 206 7.0 22.0 0.00 0.00 0.00 78 1004.4
20260505180046 78 192 9.0 21.0 0.00 0.00 0.00 77 1004.4
20260505175545 78 186 8.0 21.0 0.00 0.00 0.00 77 1004.4
20260505175045 78 187 9.0 25.0 0.00 0.00 0.00 78 1004.5
20260505174542 77 211 10.0 25.0 0.00 0.00 0.00 78 1004.5
20260505174045 77 205 10.0 23.0 0.00 0.00 0.00 79 1004.7
20260505173542 77 221 9.0 24.0 0.00 0.00 0.00 79 1004.7
20260505173041 77 194 10.0 24.0 0.00 0.00 0.00 78 1004.7
20260505172541 77 202 7.0 22.0 0.00 0.00 0.00 79 1004.7
20260505172040 77 211 7.0 25.0 0.00 0.00 0.00 79 1004.6
20260505171547 77 209 12.0 25.0 0.00 0.00 0.00 79 1004.5
20260505171040 77 210 8.0 22.0 0.00 0.00 0.00 80 1004.4
20260505170539 77 205 11.0 22.0 0.00 0.00 0.00 79 1004.5
20260505170040 77 217 8.0 20.0 0.00 0.00 0.00 80 1004.6
20260505165539 77 193 12.0 28.0 0.00 0.00 0.00 79 1004.6
20260505165038 76 212 10.0 28.0 0.00 0.00 0.00 79 1004.5
20260505164541 76 198 6.0 28.0 0.00 0.00 0.00 80 1004.5
20260505164036 76 227 11.0 28.0 0.00 0.00 0.00 80 1004.6
20260505163536 76 209 9.0 22.0 0.00 0.00 0.00 81 1004.7
20260505163040 76 215 9.0 21.0 0.00 0.00 0.00 80 1004.8
20260505162534 76 215 9.0 25.0 0.00 0.00 0.00 81 1004.8
20260505162034 76 232 10.0 25.0 0.00 0.00 0.00 80 1004.8
20260505161534 76 252 10.0 22.0 0.00 0.00 0.00 81 1004.9
20260505161034 75 175 10.0 28.0 0.00 0.00 0.00 81 1004.7
20260505160533 75 236 12.0 29.0 0.00 0.00 0.00 82 1004.7
20260505153034 74 188 12.0 22.0 0.00 0.00 0.00 82 1004.8
20260505152527 74 218 9.0 24.0 0.00 0.00 0.00 83 1004.9
20260505152035 74 193 13.0 25.0 0.00 0.00 0.00 83 1004.8
20260505151528 74 246 14.0 25.0 0.00 0.00 0.00 82 1004.6
20260505151026 74 236 13.0 27.0 0.00 0.00 0.00 82 1004.6
20260505150527 74 226 10.0 27.0 0.00 0.00 0.00 82 1004.7
20260505140516 73 185 8.0 23.0 0.00 0.00 0.00 84 1004.6
20260505125010 71 184 6.0 16.0 0.00 0.00 0.00 86 1004.3
20260505124509 71 173 7.0 12.0 0.00 0.00 0.00 87 1004.2
20260505124008 71 217 6.0 13.0 0.00 0.00 0.00 87 1004.2
20260505123508 71 173 7.0 18.0 0.00 0.00 0.00 87 1004.1
20260505123007 71 193 9.0 18.0 0.00 0.00 0.00 87 1004.0
20260505122506 71 225 6.0 11.0 0.00 0.00 0.00 87 1004.0
20260505122005 71 225 4.0 16.0 0.00 0.00 0.00 88 1004.1
20260505121505 71 202 6.0 16.0 0.00 0.00 0.00 88 1004.1
20260505121005 71 204 7.0 19.0 0.00 0.00 0.00 88 1003.9
20260505120503 71 237 9.0 19.0 0.00 0.00 0.00 88 1003.9
20260505120005 71 245 5.0 18.0 0.00 0.00 0.00 88 1004.0
20260505115503 71 209 9.0 15.0 0.00 0.00 0.00 88 1003.9
20260505115003 71 218 9.0 20.0 0.00 0.00 0.00 88 1003.9
20260505114503 71 217 5.0 20.0 0.00 0.00 0.00 88 1003.9
20260505114003 71 221 7.0 14.0 0.00 0.00 0.00 88 1003.9
20260505113502 70 215 7.0 15.0 0.00 0.00 0.00 88 1003.9
20260505113001 70 210 6.0 20.0 0.00 0.00 0.00 88 1003.8
20260505112501 70 205 8.0 20.0 0.00 0.00 0.00 88 1003.8
20260505112003 70 217 9.0 18.0 0.00 0.00 0.00 88 1003.6
20260505111504 70 140 8.0 15.0 0.00 0.00 0.00 88 1003.5
20260505111002 70 188 10.0 19.0 0.00 0.00 0.00 88 1003.5
20260505110502 70 242 8.0 19.0 0.00 0.00 0.00 88 1003.6
20260505102056 70 212 6.0 18.0 0.00 0.00 0.00 87 1003.8
20260505101556 71 213 6.0 26.0 0.00 0.00 0.00 87 1004.0
20260505101055 71 211 11.0 26.0 0.00 0.00 0.00 87 1003.9
20260505100555 71 209 11.0 23.0 0.00 0.00 0.00 87 1003.8
20260505100057 71 207 9.0 23.0 0.00 0.00 0.00 87 1003.9
20260505095557 71 196 8.0 24.0 0.00 0.00 0.00 86 1003.9
20260505095052 71 204 11.0 24.0 0.00 0.00 0.00 86 1003.8
20260505094553 71 178 10.0 19.0 0.00 0.00 0.00 86 1004.0
20260505094052 71 244 7.0 22.0 0.00 0.00 0.00 86 1003.9
20260505093552 71 209 11.0 22.0 0.00 0.00 0.00 86 1003.9
20260505093051 71 221 9.0 19.0 0.00 0.00 0.00 86 1003.8
20260505092550 71 219 9.0 24.0 0.00 0.00 0.00 85 1003.8
20260505092050 71 240 11.0 24.0 0.00 0.00 0.00 85 1003.8
20260505091613 71 209 7.0 22.0 0.00 0.00 0.00 85 1003.7
20260505091049 71 224 10.0 21.0 0.00 0.00 0.00 85 1003.8
20260505090548 71 210 9.0 21.0 0.00 0.00 0.00 85 1003.8
20260505090104 71 205 9.0 21.0 0.00 0.00 0.00 85 1003.7
20260505085548 71 231 5.0 20.0 0.00 0.00 0.00 85 1003.8
20260505085051 71 209 11.0 20.0 0.00 0.00 0.00 85 1003.8
20260505084602 71 207 9.0 19.0 0.00 0.00 0.00 85 1003.8
20260505084046 71 226 8.0 20.0 0.00 0.00 0.00 84 1003.9
20260505083549 71 205 9.0 22.0 0.00 0.00 0.00 84 1003.9
20260505083100 71 217 9.0 24.0 0.00 0.00 0.00 84 1003.8
20260505082543 71 203 9.0 24.0 0.00 0.00 0.00 84 1004.0
20260505082042 71 198 8.0 21.0 0.00 0.00 0.00 84 1004.2
20260505081555 71 209 9.0 21.0 0.00 0.00 0.00 85 1004.3
20260505081043 71 216 7.0 25.0 0.00 0.00 0.00 85 1004.3
20260505080541 71 217 9.0 25.0 0.00 0.00 0.00 85 1004.2
20260505080052 71 200 9.0 19.0 0.00 0.00 0.00 85 1004.2